Date String (YYYY-MM-DD hh:mm:ss) UTC,Instrument flags,Ambient pressure (hPa),Sample flow (lpm),Bypass flow (lpm),Sample temperature (°C),Ambient temperature (°C),ASC tube jacket temperature (°C),LED temperature (°C),Box temperature (°C),Sample RH (%),Span deviation,Mass concentration (μg/m³),Mass concentration (μg/m³),Mass concentration (μg/m³)
DateTimeUTC,F1_M11,P_M11,Q1_M11,Q2_M11,T1_M11,T2_M11,T3_M11,T4_M11,T5_M11,U1_M11,ZSPAN_M11,X2_M11,X0_M11,X1_M11
2021-12-11 07:00:00,,0821.8,5.01,0.00,21.9,22.6,00.0,31.0,23.8,04.6,0000.0,0001.56,0007.50,0001.05
2021-12-11 07:01:00,,0821.7,5.01,0.00,22.1,23.3,00.0,31.0,24.1,04.6,0000.0,0001.56,0007.86,0001.04
2021-12-11 07:02:00,,0821.6,4.99,0.00,22.2,23.2,00.0,31.0,24.1,04.5,0000.0,0001.53,0008.43,0001.04
2021-12-11 07:03:00,,0821.5,5.00,0.00,22.2,22.7,00.0,31.1,23.9,04.5,0000.0,0001.54,0008.31,0001.04
2021-12-11 07:04:00,,0821.5,5.01,0.00,22.1,22.3,00.0,31.1,23.7,04.5,0000.0,0001.61,0007.34,0001.05
2021-12-11 07:05:00,,0821.6,5.00,0.00,22.0,21.9,00.0,31.0,23.5,04.5,0000.0,0001.63,0007.27,0001.04
2021-12-11 07:06:00,,0821.6,5.01,0.00,21.9,21.6,00.0,31.0,23.3,04.5,0000.0,0001.67,0007.73,0001.04
2021-12-11 07:07:00,,0821.5,5.00,0.00,21.8,21.2,00.0,31.0,23.2,04.7,0000.0,0001.68,0007.77,0001.03
2021-12-11 07:08:00,,0821.5,5.00,0.00,21.7,21.0,00.0,31.0,23.1,04.7,0000.0,0001.65,0008.04,0001.03
2021-12-11 07:09:00,,0821.5,5.01,0.00,21.7,20.8,00.0,30.9,23.0,04.8,0000.0,0001.61,0007.95,0001.02
2021-12-11 07:10:00,,0821.5,5.00,0.00,21.7,21.3,00.0,30.9,23.2,04.8,0000.0,0001.57,0007.45,0001.02
2021-12-11 07:11:00,,0821.5,5.00,0.00,21.8,22.1,00.0,31.0,23.6,04.7,0000.0,0001.61,0006.64,0001.02
2021-12-11 07:12:00,,0821.4,5.00,0.00,22.0,22.9,00.0,31.0,23.9,04.7,0000.0,0001.62,0006.24,0001.02
2021-12-11 07:13:00,,0821.4,4.99,0.00,22.2,23.0,00.0,31.0,24.1,04.6,0000.0,0001.65,0005.16,0001.02
2021-12-11 07:14:00,,0821.3,5.00,0.00,22.1,22.6,00.0,31.1,23.9,04.7,0000.0,0001.65,0004.95,0001.00
2021-12-11 07:15:00,,0821.3,5.02,0.00,22.1,22.2,00.0,31.0,23.7,04.7,0000.0,0001.59,0004.91,0000.99
2021-12-11 07:16:00,,0821.4,5.01,0.00,22.0,21.8,00.0,31.0,23.5,04.7,0000.0,0001.58,0005.00,0000.99
2021-12-11 07:17:00,,0821.4,4.99,0.00,21.9,21.5,00.0,31.0,23.4,04.7,0000.0,0001.53,0004.68,0000.99
2021-12-11 07:18:00,,0821.4,5.01,0.00,21.8,21.2,00.0,31.0,23.2,04.7,0000.0,0001.48,0004.84,0000.98
2021-12-11 07:19:00,,0821.4,4.99,0.00,21.7,21.0,00.0,31.0,23.1,04.8,0000.0,0001.45,0004.59,0000.97
2021-12-11 07:20:00,,0821.2,4.99,0.00,21.7,21.2,00.0,30.9,23.2,04.6,0000.0,0001.43,0004.00,0000.97
2021-12-11 07:21:00,,0821.3,5.00,0.00,21.8,21.9,00.0,31.0,23.5,04.5,0000.0,0001.40,0003.90,0000.96
2021-12-11 07:22:00,,0821.3,5.01,0.00,22.0,22.6,00.0,31.0,23.9,04.6,0000.0,0001.33,0003.57,0000.94
2021-12-11 07:23:00,,0821.2,5.00,0.00,22.1,23.2,00.0,31.1,24.1,04.6,0000.0,0001.29,0003.70,0000.93
2021-12-11 07:24:00,,0821.4,5.00,0.00,22.2,22.9,00.0,31.1,24.1,04.5,0000.0,0001.30,0003.84,0000.92
2021-12-11 07:25:00,,0821.4,5.00,0.00,22.2,22.5,00.0,31.1,23.9,04.5,0000.0,0001.32,0004.14,0000.92
2021-12-11 07:26:00,,0821.4,5.00,0.00,22.1,22.1,00.0,31.1,23.7,04.6,0000.0,0001.42,0004.93,0000.92
2021-12-11 07:27:00,,0821.4,4.99,0.00,22.0,21.7,00.0,31.1,23.4,04.6,0000.0,0001.42,0004.79,0000.91
2021-12-11 07:28:00,,0821.4,5.00,0.00,21.9,21.5,00.0,31.0,23.3,04.6,0000.0,0001.40,0004.63,0000.90
2021-12-11 07:29:00,,0821.5,5.00,0.00,21.8,21.2,00.0,31.0,23.2,04.6,0000.0,0001.37,0004.16,0000.88
2021-12-11 07:30:00,,0821.4,5.01,0.00,21.7,21.0,00.0,31.0,23.1,04.6,0000.0,0001.35,0003.53,0000.87
2021-12-11 07:31:00,,0821.3,4.98,0.00,21.7,21.1,00.0,31.0,23.1,04.6,0000.0,0001.36,0003.70,0000.86
2021-12-11 07:32:00,,0821.1,5.01,0.00,21.8,21.8,00.0,31.0,23.5,04.5,0000.0,0001.38,0004.27,0000.86
2021-12-11 07:33:00,,0821.2,4.99,0.00,22.0,22.7,00.0,31.0,23.8,04.4,0000.0,0001.44,0005.26,0000.85
2021-12-11 07:34:00,,0821.2,5.01,0.00,22.1,23.4,00.0,31.1,24.2,04.4,0000.0,0001.50,0005.71,0000.85
2021-12-11 07:35:00,,0821.4,4.99,0.00,22.3,23.3,00.0,31.1,24.2,04.4,0000.0,0001.53,0005.72,0000.85
2021-12-11 07:36:00,,0821.5,5.01,0.00,22.2,22.7,00.0,31.1,24.0,04.4,0000.0,0001.48,0006.82,0000.84
2021-12-11 07:37:00,,0821.5,5.01,0.00,22.1,22.2,00.0,31.1,23.7,04.5,0000.0,0001.38,0006.16,0000.83
2021-12-11 07:38:00,,0821.4,5.00,0.00,22.0,21.8,00.0,31.1,23.5,04.4,0000.0,0001.37,0006.07,0000.82
2021-12-11 07:39:00,,0821.4,5.00,0.00,21.9,21.4,00.0,31.1,23.4,04.5,0000.0,0001.38,0006.93,0000.82
2021-12-11 07:40:00,,0821.4,5.00,0.00,21.8,21.2,00.0,31.0,23.2,04.5,0000.0,0001.41,0007.09,0000.82
2021-12-11 07:41:00,,0821.4,5.00,0.00,21.7,20.9,00.0,31.0,23.1,04.5,0000.0,0001.50,0007.50,0000.84
2021-12-11 07:42:00,,0821.4,5.01,0.00,21.6,20.8,00.0,30.9,23.0,04.5,0000.0,0001.55,0007.57,0000.85
2021-12-11 07:43:00,,0821.4,5.01,0.00,21.7,21.5,00.0,31.0,23.3,04.5,0000.0,0001.53,0007.36,0000.84
2021-12-11 07:44:00,,0821.5,5.00,0.00,21.9,22.3,00.0,31.0,23.7,04.4,0000.0,0001.53,0006.99,0000.84
2021-12-11 07:45:00,,0821.5,4.99,0.00,22.1,23.1,00.0,31.0,24.0,04.4,0000.0,0001.49,0006.91,0000.84
2021-12-11 07:46:00,,0821.6,5.01,0.00,22.2,23.3,00.0,31.1,24.1,04.3,0000.0,0001.43,0006.94,0000.83
2021-12-11 07:47:00,,0821.6,5.00,0.00,22.2,22.8,00.0,31.1,23.9,04.3,0000.0,0001.43,0005.56,0000.84
2021-12-11 07:48:00,,0821.4,4.99,0.00,22.1,22.3,00.0,31.1,23.7,04.4,0000.0,0001.49,0005.49,0000.83
2021-12-11 07:49:00,,0821.4,5.01,0.00,22.0,21.7,00.0,31.1,23.5,04.4,0000.0,0001.49,0005.58,0000.83
2021-12-11 07:50:00,,0821.5,5.00,0.00,21.9,21.2,00.0,31.0,23.3,04.4,0000.0,0001.51,0004.78,0000.84
2021-12-11 07:51:00,,0821.6,5.00,0.00,21.8,21.0,00.0,31.0,23.1,04.5,0000.0,0001.55,0005.32,0000.85
2021-12-11 07:52:00,,0821.6,5.01,0.00,21.7,20.9,00.0,31.0,23.0,04.5,0000.0,0001.53,0007.61,0000.84
2021-12-11 07:53:00,,0821.6,4.99,0.00,21.7,21.5,00.0,31.0,23.2,04.4,0000.0,0001.53,0007.69,0000.84
2021-12-11 07:54:00,,0821.6,5.00,0.00,21.9,22.3,00.0,31.0,23.6,04.4,0000.0,0001.55,0007.63,0000.83
2021-12-11 07:55:00,,0821.4,5.00,0.00,22.0,23.0,00.0,31.0,24.0,04.4,0000.0,0001.54,0007.40,0000.83
2021-12-11 07:56:00,,0821.4,5.01,0.00,22.2,23.2,00.0,31.1,24.1,04.3,0000.0,0001.57,0007.09,0000.83
2021-12-11 07:57:00,,0821.4,5.00,0.00,22.2,22.7,00.0,31.1,23.9,04.3,0000.0,0001.59,0006.99,0000.83
2021-12-11 07:58:00,,0821.4,5.00,0.00,22.1,22.3,00.0,31.1,23.7,04.3,0000.0,0001.62,0007.21,0000.83
2021-12-11 07:59:00,,0821.4,5.01,0.00,22.0,21.9,00.0,31.1,23.5,04.3,0000.0,0001.58,0007.16,0000.82
